Regional Weather Roundup
Issued by NWS

Home | Current Version | Previous Version | Graphics & Text | Print | Product List | Glossary On
Versions: 1 2 3 4 5 6 7 8 9 10 11 12 13 14 15 16 17 18 19 20 21 22 23 24 25 26 27 28 29 30 31 32 33 34 35 36 37 38 39 40 41 42 43 44 45 46 47 48 49 50
000
ASUS43 KBIS 181801
RWRND

NORTH DAKOTA REGIONAL WEATHER ROUNDUP
NATIONAL WEATHER SERVICE BISMARCK ND
100 PM CDT SAT APR 18 2015

NOTE: "FAIR" INDICATES FEW OR NO CLOUDS BELOW 12,000 FEET WITH NO
SIGNIFICANT WEATHER AND/OR OBSTRUCTIONS TO VISIBILITY.


NDZ001>003-009>011-017-181900-
NORTHWEST NORTH DAKOTA

CITY           SKY/WX    TMP DP  RH WIND       PRES   REMARKS
WILLISTON      SUNNY     70  37  29 SW14G28   29.89F
6HR MIN TEMP:  36; 6HR MAX TEMP:  71;

MINOT          SUNNY     68  25  19 S14       29.92F
MINOT AFB      SUNNY     69  28  21 S10G18    29.91F
$$

NDZ018>021-031>035-040>046-181900-
SOUTHWEST NORTH DAKOTA

CITY           SKY/WX    TMP DP  RH WIND       PRES   REMARKS
BISMARCK       CLOUDY    55  30  38 VRB3      29.98F
6HR MIN TEMP:  34; 6HR MAX TEMP:  55;

DICKINSON      SUNNY     67  33  28 SW13G22   29.92F
GARRISON         N/A     66  28  24 SE6       29.93F
6HR MIN TEMP:  36; 6HR MAX TEMP:  66;

HETTINGER ARPT CLOUDY    56  41  57 CALM      29.98F
$$

NDZ004>008-012>016-024-026-027-054-181900-
NORTHEAST NORTH DAKOTA

CITY           SKY/WX    TMP DP  RH WIND       PRES   REMARKS
GRAND FORKS    PTSUNNY   64  29  26 SE7       30.02F
GRND FRKS AFB  SUNNY     63  29  27 S9        30.01F
DEVILS LAKE    SUNNY     63  30  29 SE10      29.99F
$$

NDZ022-023-025-028>030-036>039-047>053-181900-
SOUTHEAST NORTH DAKOTA

CITY           SKY/WX    TMP DP  RH WIND       PRES   REMARKS
FARGO          MOSUNNY   67  28  23 SE7       30.00F
6HR MIN TEMP:  37; 6HR MAX TEMP:  67;

JAMESTOWN      CLOUDY    60  29  30 SE7       29.98F
$$



USA.gov is the U.S. government's official web portal to all federal, state and local government web resources and services.